Weather in Timsher

Russia / Komi Republic     61°53′58″N   55°06′50″E
temp.,
°C
wind,
m/s
gust,
m/s
humid.,
%
clouds,
%
prec.,
mm/h
press.,
hPa
HPBL,
m
1 july, fri
fri100:00+6nnw228973 0.0 101929
03:00+5nnw248698 0.0 102081
06:00+12nnw235527 0.0 1019365
09:00+17nnw3441100 0.0 10191361
12:00+20nnw343054 0.0 10181826
15:00+21nw342658 0.0 10161999
18:00+20wnw24385 0.0 1015211
21:00+13w236315 0.0 101544
2 july, sat
sat200:00+10wnw25705 0.0 101471
03:00+12nw2668100 0.0 1013176
06:00+11n2993100 0.4 1013507
09:00+11n389598 2.3 1014520
12:00+11n3793100 0.1 1015573
15:00+14n4777100 0.1 1015787
18:00+15n3667100 0.0 10151067
21:00+13n3877100 0.0 1015705
3 july, sun
sun300:00+9nnw269778 0.0 1015126
03:00+8nw39950 0.0 1015225
06:00+14n36663 0.0 1015544
09:00+18nne464741 0.0 10141770
12:00+21nne45345 0.0 10142283
15:00+21nne45325 0.0 10142416
18:00+19ne36405 0.0 1014850
21:00+12nne226195 0.0 101534
4 july, mon
mon400:00+10nne226811 0.0 101626
03:00+9n22715 0.0 101620
06:00+15n235230 0.0 1016333
09:00+20n343798 0.0 10151572
12:00+23n34305 0.0 10142003
15:00+24n3428100 0.0 10132157
18:00+22nne1144100 0.0 101226
21:00+15wnw0059100 0.0 101211
5 july, tue
tue500:00+14w116471 0.0 101210
03:00+14wsw226799 0.0 101231
06:00+20nw255598 0.0 1011312
09:00+18w228140 0.3 101157
12:00+27wnw564038 0.0 10092083
15:00+22nw12647 0.3 1008125
18:00+18w1292100 4.7 100836
21:00+16sw22955 5.4 100934